When you browse on this site, cookies collect data to enhance your experience and personalize the content and advertising you see.
Visit our Privacy Policy to learn more. By continuing to use the site, you agree to this use of cookies and data.
  • In Spain
  • List of Countries
  • For 7 days
  • Water Temperature
  • Weather Map
  • Weather Widgets
  • user-avatar
    Login

    Hourly Weather Palermo

    Today, 21 January, Tuesday

    Time Temperature Precipitation Wind Pressure Humidity
    00:00 +11°C° 0 mm 3 mps 771 mmHg 86%
    01:00 +12°C° 0 mm 2 mps 771 mmHg 88%
    02:00 +12°C° 0 mm 2 mps 771 mmHg 89%
    03:00 +11°C° 0 mm 3 mps 771 mmHg 89%
    04:00 +10°C° 0 mm 3 mps 771 mmHg 90%
    05:00 +11°C° 0 mm 3 mps 772 mmHg 90%
    06:00 +11°C° 0 mm 3 mps 772 mmHg 90%
    07:00 +12°C° 0 mm 2 mps 772 mmHg 89%
    08:00 +12°C° 0 mm 3 mps 772 mmHg 84%
    09:00 +14°C° 0 mm 3 mps 773 mmHg 79%
    10:00 +15°C° 0 mm 4 mps 773 mmHg 74%
    11:00 +15°C° 0 mm 4 mps 773 mmHg 72%
    12:00 +17°C° 0 mm 4 mps 773 mmHg 71%
    13:00 +16°C° 0 mm 5 mps 773 mmHg 69%
    14:00 +15°C° 0 mm 4 mps 772 mmHg 71%
    15:00 +15°C° 0 mm 4 mps 772 mmHg 74%
    16:00 +15°C° 0 mm 4 mps 772 mmHg 76%
    17:00 +14°C° 0 mm 4 mps 772 mmHg 80%
    18:00 +13°C° 0 mm 3 mps 772 mmHg 83%
    19:00 +12°C° 0 mm 3 mps 772 mmHg 86%
    20:00 +11°C° 0 mm 3 mps 772 mmHg 87%
    21:00 +11°C° 0 mm 3 mps 773 mmHg 89%
    22:00 +10°C° 0 mm 3 mps 773 mmHg 90%
    23:00 +10°C° 0 mm 3 mps 773 mmHg 90%

    Tomorrow, 22 January, Wednesday

    Time Temperature Precipitation Wind Pressure Humidity
    00:00 +10°C° 0 mm 3 mps 773 mmHg 90%
    01:00 +10°C° 0 mm 3 mps 773 mmHg 90%
    02:00 +10°C° 0 mm 3 mps 773 mmHg 90%
    03:00 +10°C° 0 mm 3 mps 772 mmHg 90%
    04:00 +10°C° 0 mm 3 mps 772 mmHg 90%
    05:00 +10°C° 0 mm 3 mps 772 mmHg 90%
    06:00 +9°C° 0 mm 2 mps 772 mmHg 89%
    07:00 +9°C° 0 mm 2 mps 772 mmHg 89%
    08:00 +12°C° 0 mm 2 mps 772 mmHg 83%
    09:00 +13°C° 0 mm 2 mps 772 mmHg 78%
    10:00 +15°C° 0 mm 2 mps 773 mmHg 73%
    11:00 +15°C° 0 mm 2 mps 772 mmHg 70%
    12:00 +16°C° 0 mm 2 mps 772 mmHg 66%
    13:00 +18°C° 0 mm 1 mps 771 mmHg 63%
    14:00 +16°C° 0 mm 1 mps 771 mmHg 66%
    15:00 +16°C° 0 mm 2 mps 770 mmHg 68%
    16:00 +16°C° 0 mm 2 mps 770 mmHg 71%
    17:00 +14°C° 0 mm 2 mps 770 mmHg 75%
    18:00 +13°C° 0 mm 2 mps 770 mmHg 80%
    19:00 +12°C° 0 mm 1 mps 770 mmHg 84%
    20:00 +10°C° 0 mm 2 mps 770 mmHg 85%
    21:00 +10°C° 0 mm 2 mps 770 mmHg 87%
    22:00 +9°C° 0 mm 2 mps 770 mmHg 88%
    23:00 +9°C° 0 mm 2 mps 769 mmHg 88%

    Day after tomorrow, 23 January, Thursday

    Time Temperature Precipitation Wind Pressure Humidity
    00:00 +9°C° 0 mm 2 mps 769 mmHg 89%
    01:00 +9°C° 0 mm 2 mps 769 mmHg 89%
    02:00 +9°C° 0 mm 2 mps 769 mmHg 89%
    03:00 +8°C° 0 mm 2 mps 769 mmHg 89%
    04:00 +8°C° 0 mm 2 mps 768 mmHg 89%
    05:00 +8°C° 0 mm 2 mps 768 mmHg 89%
    06:00 +8°C° 0 mm 2 mps 768 mmHg 88%
    07:00 +8°C° 0 mm 2 mps 768 mmHg 87%
    08:00 +11°C° 0 mm 1 mps 768 mmHg 81%
    09:00 +12°C° 0 mm 1 mps 768 mmHg 75%
    10:00 +14°C° 0 mm 1 mps 769 mmHg 68%
    11:00 +15°C° 0 mm 1 mps 768 mmHg 65%
    12:00 +16°C° 0 mm 1 mps 768 mmHg 62%
    13:00 +18°C° 0 mm 1 mps 767 mmHg 59%
    14:00 +17°C° 0 mm 2 mps 767 mmHg 64%
    15:00 +16°C° 0 mm 2 mps 767 mmHg 69%
    16:00 +16°C° 0 mm 3 mps 767 mmHg 73%
    17:00 +13°C° 0 mm 3 mps 767 mmHg 78%
    18:00 +12°C° 0 mm 3 mps 767 mmHg 83%
    19:00 +11°C° 0 mm 3 mps 767 mmHg 87%
    20:00 +10°C° 0 mm 3 mps 767 mmHg 87%
    21:00 +10°C° 0 mm 3 mps 767 mmHg 86%
    22:00 +10°C° 0 mm 3 mps 767 mmHg 86%
    23:00 +10°C° 0 mm 3 mps 767 mmHg 85%

    24 January, Friday

    Time Temperature Precipitation Wind Pressure Humidity
    00:00 +10°C° 0 mm 3 mps 767 mmHg 84%
    01:00 +9°C° 0 mm 3 mps 767 mmHg 83%
    02:00 +9°C° 0 mm 3 mps 767 mmHg 84%
    03:00 +9°C° 0 mm 3 mps 766 mmHg 86%
    04:00 +9°C° 0 mm 3 mps 766 mmHg 88%
    05:00 +9°C° 0 mm 3 mps 766 mmHg 88%
    06:00 +9°C° 0 mm 3 mps 766 mmHg 88%
    07:00 +9°C° 0 mm 3 mps 766 mmHg 88%
    08:00 +10°C° 0 mm 3 mps 767 mmHg 84%
    09:00 +12°C° 0 mm 3 mps 767 mmHg 80%
    10:00 +13°C° 0 mm 3 mps 767 mmHg 76%
    11:00 +14°C° 0 mm 4 mps 767 mmHg 74%
    12:00 +15°C° 0 mm 4 mps 767 mmHg 71%
    13:00 +17°C° 0 mm 4 mps 766 mmHg 69%
    14:00 +15°C° 0 mm 4 mps 766 mmHg 71%
    15:00 +15°C° 0 mm 4 mps 766 mmHg 73%
    16:00 +15°C° 0 mm 4 mps 766 mmHg 75%
    17:00 +14°C° 0 mm 4 mps 766 mmHg 79%
    18:00 +13°C° 0 mm 4 mps 766 mmHg 83%
    19:00 +12°C° 0 mm 3 mps 766 mmHg 86%
    20:00 +12°C° 0 mm 3 mps 766 mmHg 87%
    21:00 +12°C° 0 mm 3 mps 767 mmHg 88%
    22:00 +12°C° 0 mm 3 mps 767 mmHg 89%
    23:00 +11°C° 0 mm 3 mps 766 mmHg 89%

    25 January, Saturday

    Time Temperature Precipitation Wind Pressure Humidity
    00:00 +11°C° 0 mm 3 mps 766 mmHg 89%
    01:00 +11°C° 0 mm 3 mps 766 mmHg 89%
    02:00 +11°C° 0 mm 3 mps 766 mmHg 89%
    03:00 +11°C° 0 mm 3 mps 765 mmHg 89%
    04:00 +11°C° 0 mm 3 mps 765 mmHg 89%
    05:00 +11°C° 0 mm 3 mps 765 mmHg 90%
    06:00 +11°C° 0 mm 3 mps 765 mmHg 91%
    07:00 +11°C° 0 mm 3 mps 765 mmHg 91%
    08:00 +12°C° 0 mm 3 mps 765 mmHg 87%
    09:00 +15°C° 0 mm 2 mps 765 mmHg 82%
    10:00 +16°C° 0 mm 2 mps 766 mmHg 78%
    11:00 +17°C° 0 mm 2 mps 765 mmHg 75%
    12:00 +17°C° 0 mm 2 mps 765 mmHg 72%
    13:00 +18°C° 0 mm 2 mps 765 mmHg 69%
    14:00 +18°C° 0 mm 2 mps 764 mmHg 71%
    15:00 +17°C° 0 mm 2 mps 764 mmHg 73%
    16:00 +17°C° 0 mm 2 mps 763 mmHg 75%
    17:00 +16°C° 0 mm 2 mps 764 mmHg 80%
    18:00 +15°C° 0 mm 2 mps 764 mmHg 85%
    19:00 +14°C° 0 mm 2 mps 764 mmHg 89%
    20:00 +14°C° 0 mm 2 mps 764 mmHg 89%
    21:00 +14°C° 0 mm 2 mps 765 mmHg 88%
    22:00 +14°C° 0 mm 2 mps 765 mmHg 88%
    23:00 +14°C° 0 mm 2 mps 765 mmHg 86%

    26 January, Sunday

    Time Temperature Precipitation Wind Pressure Humidity
    00:00 +14°C° 0 mm 2 mps 764 mmHg 84%
    01:00 +14°C° 0 mm 1 mps 764 mmHg 81%
    02:00 +14°C° 0 mm 1 mps 764 mmHg 77%
    03:00 +14°C° 0 mm 1 mps 764 mmHg 72%
    04:00 +14°C° 0 mm 1 mps 764 mmHg 67%
    05:00 +14°C° 0 mm 1 mps 764 mmHg 69%
    06:00 +14°C° 0 mm 2 mps 764 mmHg 70%
    07:00 +14°C° 0 mm 2 mps 764 mmHg 72%
    08:00 +14°C° 0 mm 1 mps 764 mmHg 71%
    09:00 +15°C° 0 mm 1 mps 765 mmHg 70%
    10:00 +16°C° 0 mm 1 mps 765 mmHg 69%
    11:00 +15°C° 0.1 mm 1 mps 764 mmHg 74%
    12:00 +15°C° 0.1 mm 2 mps 764 mmHg 80%
    13:00 +14°C° 0.1 mm 2 mps 764 mmHg 85%
    14:00 +14°C° 0.4 mm 2 mps 764 mmHg 86%
    15:00 +14°C° 0.4 mm 2 mps 764 mmHg 88%
    16:00 +14°C° 0.4 mm 2 mps 764 mmHg 89%
    17:00 +14°C° 0.1 mm 2 mps 764 mmHg 90%
    18:00 +13°C° 0.1 mm 2 mps 764 mmHg 90%
    19:00 +13°C° 0.1 mm 2 mps 764 mmHg 91%
    20:00 +13°C° 0 mm 2 mps 764 mmHg 91%
    21:00 +12°C° 0 mm 2 mps 764 mmHg 90%
    22:00 +12°C° 0 mm 2 mps 763 mmHg 90%
    23:00 +12°C° 0.1 mm 2 mps 763 mmHg 90%
    Show more